"Period start","avg(HW err(1)/warn(2) (#))","avg(Visibility (m))","avg(Weather code (#))","avg(Precip intensity (mm/h))","min(HW err(1)/warn(2) (#))","max(HW err(1)/warn(2) (#))","std(HW err(1)/warn(2) (#))","med(HW err(1)/warn(2) (#))","min(Visibility (m))","max(Visibility (m))","std(Visibility (m))","med(Visibility (m))","min(Weather code (#))","max(Weather code (#))","std(Weather code (#))","med(Weather code (#))","min(Precip intensity (mm/h))","max(Precip intensity (mm/h))","std(Precip intensity (mm/h))","med(Precip intensity (mm/h))"
2014-04-09 00:00:00,2,1913,29,0.06,2,2,0,2,1294,2617,378,2006,10,41,15,41,0.00,0.15,0.06,0.05
2014-04-09 00:10:00,2,1823,38,0.14,2,2,0,2,1433,2547,343,1722,10,41,9,41,0.00,0.30,0.09,0.15
2014-04-09 00:20:00,2,1890,41,0.11,2,2,0,2,1280,2777,502,1800,41,41,0,41,0.00,0.25,0.09,0.08
2014-04-09 00:30:00,2,1729,63,0.11,2,2,0,2,1372,2386,296,1581,41,77,18,77,0.00,0.20,0.06,0.10
2014-04-09 00:40:00,2,2224,42,0.04,2,2,0,2,1375,3717,593,2124,10,77,26,41,0.00,0.10,0.04,0.05
2014-04-09 00:50:00,2,2369,16,0.01,2,2,0,2,1856,3536,493,2212,10,41,12,10,0.00,0.05,0.02,0.00
2014-04-09 01:00:00,2,2135,10,0.00,2,2,0,2,1808,2599,239,2140,10,10,0,10,0.00,0.00,0.00,0.00
2014-04-09 01:10:00,2,2278,27,0.02,2,2,0,2,1424,3019,444,2314,10,54,17,26,0.00,0.10,0.03,0.00
2014-04-09 01:20:00,2,3119,10,0.00,2,2,0,2,2355,4035,544,3038,10,10,0,10,0.00,0.00,0.00,0.00
2014-04-09 01:30:00,2,3610,10,0.00,2,2,0,2,1878,5690,958,3560,10,10,0,10,0.00,0.00,0.00,0.00
2014-04-09 01:40:00,2,4046,10,0.00,2,2,0,2,2839,5742,900,3954,10,10,0,10,0.00,0.00,0.00,0.00
2014-04-09 01:50:00,2,3330,19,0.01,2,2,0,2,1968,5729,1001,3210,10,41,14,10,0.00,0.15,0.05,0.00
2014-04-09 02:00:00,2,2502,10,0.00,2,2,0,2,2008,3372,402,2346,10,10,0,10,0.00,0.00,0.00,0.00
2014-04-09 02:10:00,2,2464,10,0.00,2,2,0,2,1682,3163,533,2468,10,10,0,10,0.00,0.00,0.00,0.00
2014-04-09 02:20:00,2,3689,19,0.01,2,2,0,2,2366,5146,953,3706,10,41,14,10,0.00,0.10,0.03,0.00
2014-04-09 02:30:00,2,2494,19,0.06,2,2,0,2,1776,4285,720,2236,10,41,14,10,0.00,0.35,0.12,0.00
2014-04-09 02:40:00,2,2408,34,0.11,2,2,0,2,1505,3217,582,2456,10,54,20,41,0.00,0.35,0.14,0.00
2014-04-09 02:50:00,2,3273,10,0.00,2,2,0,2,2564,4362,557,3090,10,10,0,10,0.00,0.00,0.00,0.00
2014-04-09 03:00:00,2,3615,10,0.00,2,2,0,2,2406,4677,730,3670,10,10,0,10,0.00,0.00,0.00,0.00
2014-04-09 03:10:00,2,3449,10,0.00,2,2,0,2,2488,5276,755,3190,10,10,0,10,0.00,0.00,0.00,0.00
2014-04-09 03:20:00,2,3420,10,0.00,2,2,0,2,2589,4739,620,3270,10,10,0,10,0.00,0.00,0.00,0.00
2014-04-09 03:30:00,2,2600,19,0.06,2,2,0,2,1388,4628,1026,2284,10,41,14,10,0.00,0.25,0.10,0.00
2014-04-09 03:40:00,2,2610,32,0.03,2,2,0,2,2040,4292,649,2298,10,41,14,41,0.00,0.20,0.06,0.00
2014-04-09 03:50:00,2,2891,10,0.00,2,2,0,2,1577,3907,675,2930,10,10,0,10,0.00,0.00,0.00,0.00
2014-04-09 04:00:00,2,2819,10,0.00,2,2,0,2,2285,3418,387,2788,10,10,0,10,0.00,0.00,0.00,0.00
2014-04-09 04:10:00,2,3402,10,0.00,2,2,0,2,2278,4359,586,3361,10,10,0,10,0.00,0.00,0.00,0.00
2014-04-09 04:20:00,2,3244,10,0.00,2,2,0,2,2086,4755,887,3088,10,10,0,10,0.00,0.00,0.00,0.00
2014-04-09 04:30:00,2,4126,10,0.00,2,2,0,2,2109,6664,1327,3661,10,10,0,10,0.00,0.00,0.00,0.00
2014-04-09 04:40:00,2,5099,10,0.00,2,2,0,2,2973,7746,1339,4874,10,10,0,10,0.00,0.00,0.00,0.00
2014-04-09 04:50:00,2,5775,10,0.00,2,2,0,2,3039,8562,1880,6296,10,10,0,10,0.00,0.00,0.00,0.00
2014-04-09 05:00:00,2,4974,10,0.00,2,2,0,2,3319,6296,945,4804,10,10,0,10,0.00,0.00,0.00,0.00
2014-04-09 05:10:00,2,5942,10,0.00,2,2,0,2,4697,8735,1026,5678,10,10,0,10,0.00,0.00,0.00,0.00
2014-04-09 05:20:00,2,6596,10,0.00,2,2,0,2,5124,8293,1202,6768,10,10,0,10,0.00,0.00,0.00,0.00
2014-04-09 05:30:00,2,6276,10,0.00,2,2,0,2,5012,8151,1103,5814,10,10,0,10,0.00,0.00,0.00,0.00
2014-04-09 05:40:00,2,11771,10,0.00,2,2,0,2,5509,19371,4183,12142,10,10,0,10,0.00,0.00,0.00,0.00
2014-04-09 05:50:00,2,10771,3,0.00,2,2,0,2,7348,15245,2510,10144,0,10,5,0,0.00,0.00,0.00,0.00
2014-04-09 06:00:00,2,11638,0,0.00,2,2,0,2,7222,15288,2433,12113,0,0,0,0,0.00,0.00,0.00,0.00
2014-04-09 06:10:00,2,18406,0,0.00,2,2,0,2,9068,27686,5243,18288,0,0,0,0,0.00,0.00,0.00,0.00
2014-04-09 06:20:00,2,10246,0,0.00,2,2,0,2,6272,19625,4389,7912,0,0,0,0,0.00,0.00,0.00,0.00
2014-04-09 06:30:00,2,8349,9,0.00,2,2,0,2,6305,9800,1109,8739,0,10,3,10,0.00,0.00,0.00,0.00
2014-04-09 06:40:00,2,10308,10,0.00,2,2,0,2,6099,14106,2360,9746,10,10,0,10,0.00,0.00,0.00,0.00
2014-04-09 06:50:00,2,10236,8,0.00,2,2,0,2,8127,11603,1292,10554,0,10,4,10,0.00,0.00,0.00,0.00
2014-04-09 07:00:00,2,6042,7,0.00,2,2,0,2,3623,10305,2119,5313,0,10,5,10,0.00,0.00,0.00,0.00
2014-04-09 07:10:00,2,4636,10,0.00,2,2,0,2,3554,5904,736,4542,10,10,0,10,0.00,0.00,0.00,0.00
2014-04-09 07:20:00,2,5540,10,0.00,2,2,0,2,4192,7303,969,5330,10,10,0,10,0.00,0.00,0.00,0.00
2014-04-09 07:30:00,2,6154,10,0.00,2,2,0,2,4475,8811,1216,5810,10,10,0,10,0.00,0.00,0.00,0.00
2014-04-09 07:40:00,2,5761,10,0.00,2,2,0,2,4026,7279,934,5678,10,10,0,10,0.00,0.00,0.00,0.00
2014-04-09 07:50:00,2,5908,10,0.00,2,2,0,2,3972,7917,1046,6073,10,10,0,10,0.00,0.00,0.00,0.00
2014-04-09 08:00:00,2,6369,10,0.00,2,2,0,2,4686,8720,1287,5912,10,10,0,10,0.00,0.00,0.00,0.00
2014-04-09 08:10:00,2,6259,10,0.00,2,2,0,2,4383,8394,1188,6412,10,10,0,10,0.00,0.00,0.00,0.00
2014-04-09 08:20:00,2,5406,22,0.05,2,2,0,2,3247,7242,1068,5496,10,41,15,10,0.00,0.35,0.10,0.00
2014-04-09 08:30:00,2,5713,41,0.32,2,2,0,2,4779,6467,517,5641,41,41,0,41,0.05,0.60,0.18,0.38
2014-04-09 08:40:00,2,6119,16,0.00,2,2,0,2,4747,9199,1377,5715,10,41,12,10,0.00,0.00,0.00,0.00
2014-04-09 08:50:00,2,6123,10,0.00,2,2,0,2,4122,8981,1463,6066,10,10,0,10,0.00,0.00,0.00,0.00
2014-04-09 09:00:00,2,5072,10,0.00,2,2,0,2,4199,6194,693,4920,10,10,0,10,0.00,0.00,0.00,0.00
2014-04-09 09:10:00,2,6198,10,0.00,2,2,0,2,4820,7411,773,6256,10,10,0,10,0.00,0.00,0.00,0.00
2014-04-09 09:20:00,2,6300,10,0.00,2,2,0,2,4859,8929,1178,6138,10,10,0,10,0.00,0.00,0.00,0.00
2014-04-09 09:30:00,2,5880,10,0.00,2,2,0,2,3880,9399,1783,5301,10,10,0,10,0.00,0.00,0.00,0.00
2014-04-09 09:40:00,2,7313,10,0.00,2,2,0,2,4762,9722,1789,7603,10,10,0,10,0.00,0.00,0.00,0.00
2014-04-09 09:50:00,2,11914,10,0.00,2,2,0,2,9393,16431,2150,11278,10,10,0,10,0.00,0.00,0.00,0.00
2014-04-09 10:00:00,2,18286,1,0.00,2,2,0,2,10838,30884,6072,17038,0,10,3,0,0.00,0.00,0.00,0.00
2014-04-09 10:10:00,2,19261,0,0.00,2,2,0,2,11957,25488,3180,19050,0,0,0,0,0.00,0.00,0.00,0.00
2014-04-09 10:20:00,2,20669,0,0.00,2,2,0,2,15905,28273,3811,20171,0,0,0,0,0.00,0.00,0.00,0.00
2014-04-09 10:30:00,2,19340,0,0.00,2,2,0,2,15399,22261,2210,20036,0,0,0,0,0.00,0.00,0.00,0.00
2014-04-09 10:40:00,2,18773,0,0.00,2,2,0,2,12461,23304,2978,19010,0,0,0,0,0.00,0.00,0.00,0.00
2014-04-09 10:50:00,2,15453,4,0.04,2,2,0,2,11839,19241,1801,15519,0,41,12,0,0.00,0.35,0.11,0.00
2014-04-09 11:00:00,2,11675,41,0.20,2,2,0,2,9778,13614,1254,11858,41,41,0,41,0.00,0.55,0.18,0.15
2014-04-09 11:10:00,2,20925,0,0.00,2,2,0,2,10743,29366,6571,22044,0,0,0,0,0.00,0.00,0.00,0.00
2014-04-09 11:20:00,2,18187,0,0.00,2,2,0,2,15486,22025,2141,17296,0,0,0,0,0.00,0.00,0.00,0.00
2014-04-09 11:30:00,2,19476,0,0.00,2,2,0,2,16510,24005,1860,19246,0,0,0,0,0.00,0.00,0.00,0.00
2014-04-09 11:40:00,2,19916,0,0.00,2,2,0,2,13271,25146,3224,20478,0,0,0,0,0.00,0.00,0.00,0.00
2014-04-09 11:50:00,2,22040,0,0.00,2,2,0,2,19482,25392,1866,21590,0,0,0,0,0.00,0.00,0.00,0.00
2014-04-09 12:00:00,2,24252,0,0.00,2,2,0,2,21199,25974,1618,25171,0,0,0,0,0.00,0.00,0.00,0.00
2014-04-09 12:10:00,2,30530,0,0.00,2,2,0,2,23069,41570,5821,28690,0,0,0,0,0.00,0.00,0.00,0.00
2014-04-09 12:20:00,2,43512,0,0.00,2,2,0,2,39715,48897,2920,42953,0,0,0,0,0.00,0.00,0.00,0.00
2014-04-09 12:30:00,2,34823,0,0.00,2,2,0,2,29476,40714,3594,33632,0,0,0,0,0.00,0.00,0.00,0.00
2014-04-09 12:40:00,2,25859,0,0.00,2,2,0,2,22456,29639,2298,26176,0,0,0,0,0.00,0.00,0.00,0.00
2014-04-09 12:50:00,2,37264,0,0.00,2,2,0,2,23929,49993,8256,39382,0,0,0,0,0.00,0.00,0.00,0.00
2014-04-09 13:00:00,2,37733,0,0.00,2,2,0,2,33356,46020,3411,37054,0,0,0,0,0.00,0.00,0.00,0.00
2014-04-09 13:10:00,2,34280,0,0.00,2,2,0,2,25221,43742,5956,32465,0,0,0,0,0.00,0.00,0.00,0.00
2014-04-09 13:20:00,2,27083,0,0.00,2,2,0,2,16243,38803,6795,26460,0,0,0,0,0.00,0.00,0.00,0.00
2014-04-09 13:30:00,2,27581,0,0.00,2,2,0,2,21076,37352,4743,25310,0,0,0,0,0.00,0.00,0.00,0.00
2014-04-09 13:40:00,2,30897,0,0.00,2,2,0,2,24141,36662,3374,30791,0,0,0,0,0.00,0.00,0.00,0.00
2014-04-09 13:50:00,2,16771,0,0.00,2,2,0,2,11428,21377,3108,16916,0,0,0,0,0.00,0.00,0.00,0.00
2014-04-09 14:00:00,2,15721,0,0.00,2,2,0,2,13016,17433,1253,15540,0,0,0,0,0.00,0.00,0.00,0.00
2014-04-09 14:10:00,2,24350,0,0.00,2,2,0,2,16241,33376,4860,24864,0,0,0,0,0.00,0.00,0.00,0.00
2014-04-09 14:20:00,2,15246,0,0.00,2,2,0,2,11630,18568,2318,14895,0,0,0,0,0.00,0.00,0.00,0.00
2014-04-09 14:30:00,2,11838,34,0.08,2,2,0,2,9306,14515,1790,11744,0,67,24,41,0.00,0.25,0.11,0.00
2014-04-09 14:40:00,2,9522,18,0.29,2,2,0,2,2432,16753,4650,10845,0,41,15,10,0.00,1.80,0.55,0.00
2014-04-09 14:50:00,2,24479,4,0.00,2,2,0,2,18073,35569,5704,21858,0,10,5,0,0.00,0.00,0.00,0.00
2014-04-09 15:00:00,2,17085,26,0.12,2,2,0,2,5458,32931,8566,15773,0,71,28,20,0.00,0.55,0.18,0.05
2014-04-09 15:10:00,2,4741,71,0.75,2,2,0,2,1828,7981,1882,4701,71,71,0,71,0.15,1.40,0.45,0.82
2014-04-09 15:20:00,2,7750,72,0.49,2,2,0,2,5427,9426,1125,8070,71,74,1,71,0.05,0.95,0.33,0.50
2014-04-09 15:30:00,2,7205,71,1.13,2,2,0,2,2235,22918,6016,4798,71,71,0,71,0.00,3.00,0.96,1.20
2014-04-09 15:40:00,2,43465,26,0.01,2,2,0,2,34006,49176,5246,45528,0,71,28,20,0.00,0.10,0.03,0.00
2014-04-09 15:50:00,2,40831,0,0.00,2,2,0,2,33321,49409,4402,40496,0,0,0,0,0.00,0.00,0.00,0.00
2014-04-09 16:00:00,2,21200,1,0.00,2,2,0,2,2748,43833,15862,21310,0,10,3,0,0.00,0.00,0.00,0.00
2014-04-09 16:10:00,2,11221,10,0.00,2,2,0,2,9119,15190,1762,10448,10,10,0,10,0.00,0.00,0.00,0.00
2014-04-09 16:20:00,2,3752,53,5.15,2,2,0,2,373,12615,4661,910,10,71,24,71,0.00,13.15,4.50,4.50
2014-04-09 16:30:00,2,8060,44,1.04,2,2,0,2,674,21005,6684,5509,0,71,24,34,0.00,5.25,2.07,0.00
2014-04-09 16:40:00,2,12606,20,0.00,2,2,0,2,3519,22418,7499,12555,20,20,0,20,0.00,0.00,0.00,0.00
2014-04-09 16:50:00,2,13598,20,0.00,2,2,0,2,7356,22335,4902,11995,20,20,0,20,0.00,0.00,0.00,0.00
2014-04-09 17:00:00,2,20348,20,0.00,2,2,0,2,12679,28014,5115,19754,20,20,0,20,0.00,0.00,0.00,0.00
2014-04-09 17:10:00,2,15615,20,0.00,2,2,0,2,8376,31879,7814,11816,20,20,0,20,0.00,0.00,0.00,0.00
2014-04-09 17:20:00,2,31481,20,0.00,2,2,0,2,17455,47305,9909,30209,20,20,0,20,0.00,0.00,0.00,0.00
2014-04-09 17:30:00,2,10439,28,0.45,2,2,0,2,2023,26206,6287,10068,20,41,10,20,0.00,3.15,0.98,0.00
2014-04-09 17:40:00,2,16621,64,0.74,2,2,0,2,2219,43552,13638,11412,0,71,21,71,0.00,4.65,1.37,0.12
2014-04-09 17:50:00,2,46662,0,0.00,2,2,0,2,41720,50000,2783,47589,0,0,0,0,0.00,0.00,0.00,0.00
2014-04-09 18:00:00,2,46594,0,0.00,2,2,0,2,41453,50000,3019,47048,0,0,0,0,0.00,0.00,0.00,0.00
2014-04-09 18:10:00,2,49405,0,0.00,2,2,0,2,47201,50000,989,50000,0,0,0,0,0.00,0.00,0.00,0.00
2014-04-09 18:20:00,2,48827,0,0.00,2,2,0,2,45944,50000,1418,49576,0,0,0,0,0.00,0.00,0.00,0.00
2014-04-09 18:30:00,2,48833,0,0.00,2,2,0,2,44200,50000,1797,50000,0,0,0,0,0.00,0.00,0.00,0.00
2014-04-09 18:40:00,2,48922,0,0.00,2,2,0,2,46035,50000,1332,49554,0,0,0,0,0.00,0.00,0.00,0.00
2014-04-09 18:50:00,2,49700,0,0.00,2,2,0,2,48309,50000,607,50000,0,0,0,0,0.00,0.00,0.00,0.00
2014-04-09 19:00:00,2,48506,0,0.00,2,2,0,2,44038,50000,2345,50000,0,0,0,0,0.00,0.00,0.00,0.00
2014-04-09 19:10:00,2,48824,0,0.00,2,2,0,2,44498,50000,1928,49780,0,0,0,0,0.00,0.00,0.00,0.00
2014-04-09 19:20:00,2,46301,0,0.00,2,2,0,2,34667,50000,5221,48852,0,0,0,0,0.00,0.00,0.00,0.00
2014-04-09 19:30:00,2,47812,0,0.00,2,2,0,2,44509,50000,1752,47657,0,0,0,0,0.00,0.00,0.00,0.00
2014-04-09 19:40:00,2,44874,0,0.00,2,2,0,2,28578,50000,6719,47957,0,0,0,0,0.00,0.00,0.00,0.00
2014-04-09 19:50:00,2,43276,0,0.00,2,2,0,2,37480,50000,4942,42626,0,0,0,0,0.00,0.00,0.00,0.00
2014-04-09 20:00:00,2,47344,0,0.00,2,2,0,2,41350,50000,2775,47700,0,0,0,0,0.00,0.00,0.00,0.00
2014-04-09 20:10:00,2,48323,0,0.00,2,2,0,2,43179,50000,2370,49789,0,0,0,0,0.00,0.00,0.00,0.00
2014-04-09 20:20:00,2,49254,0,0.00,2,2,0,2,44040,50000,1759,50000,0,0,0,0,0.00,0.00,0.00,0.00
2014-04-09 20:30:00,2,47612,0,0.00,2,2,0,2,38542,50000,3869,49802,0,0,0,0,0.00,0.00,0.00,0.00
2014-04-09 20:40:00,2,47829,0,0.00,2,2,0,2,41456,50000,2682,48978,0,0,0,0,0.00,0.00,0.00,0.00
2014-04-09 20:50:00,2,48499,0,0.00,2,2,0,2,45091,50000,1743,49028,0,0,0,0,0.00,0.00,0.00,0.00
2014-04-09 21:00:00,2,49091,0,0.00,2,2,0,2,47020,50000,1162,50000,0,0,0,0,0.00,0.00,0.00,0.00
2014-04-09 21:10:00,2,48867,0,0.00,2,2,0,2,44816,50000,1751,50000,0,0,0,0,0.00,0.00,0.00,0.00
2014-04-09 21:20:00,2,45962,0,0.00,2,2,0,2,37517,50000,3542,46876,0,0,0,0,0.00,0.00,0.00,0.00
2014-04-09 21:30:00,2,44777,0,0.00,2,2,0,2,35741,50000,4510,45288,0,0,0,0,0.00,0.00,0.00,0.00
2014-04-09 21:40:00,2,45489,0,0.00,2,2,0,2,37693,50000,3267,45490,0,0,0,0,0.00,0.00,0.00,0.00
2014-04-09 21:50:00,2,42599,0,0.00,2,2,0,2,32354,50000,5634,42178,0,0,0,0,0.00,0.00,0.00,0.00
2014-04-09 22:00:00,2,45731,0,0.00,2,2,0,2,36617,50000,4188,46820,0,0,0,0,0.00,0.00,0.00,0.00
2014-04-09 22:10:00,2,45407,0,0.00,2,2,0,2,33066,50000,5220,47159,0,0,0,0,0.00,0.00,0.00,0.00
2014-04-09 22:20:00,2,32607,0,0.00,2,2,0,2,27313,40438,4248,31304,0,0,0,0,0.00,0.00,0.00,0.00
2014-04-09 22:30:00,2,27597,25,0.00,2,2,0,2,17632,38972,6683,24568,0,41,20,41,0.00,0.00,0.00,0.00
2014-04-09 22:40:00,2,32687,0,0.00,2,2,0,2,23800,39359,4938,33434,0,0,0,0,0.00,0.00,0.00,0.00
2014-04-09 22:50:00,2,33180,0,0.00,2,2,0,2,20960,50000,8585,29528,0,0,0,0,0.00,0.00,0.00,0.00
2014-04-09 23:00:00,2,32288,0,0.00,2,2,0,2,20291,44657,8487,32856,0,0,0,0,0.00,0.00,0.00,0.00
2014-04-09 23:10:00,2,28394,0,0.00,2,2,0,2,17133,40688,7779,27774,0,0,0,0,0.00,0.00,0.00,0.00
2014-04-09 23:20:00,2,14194,0,0.00,2,2,0,2,10263,18885,2876,13233,0,0,0,0,0.00,0.00,0.00,0.00
2014-04-09 23:30:00,2,18956,0,0.00,2,2,0,2,10172,28669,6087,18700,0,0,0,0,0.00,0.00,0.00,0.00
2014-04-09 23:40:00,2,20146,0,0.00,2,2,0,2,10598,42856,9910,15987,0,0,0,0,0.00,0.00,0.00,0.00
2014-04-09 23:50:00,2,16229,0,0.00,2,2,0,2,10980,20177,3081,16328,0,0,0,0,0.00,0.00,0.00,0.00
